Location: Unspecified
(44.0704°N, 88.6889°W)
Time: 06:37:44
(UTC+02:00)

Altair - Pass Details

Date: 19 June 2019
Orbit: 1501 x 1683 km, 47.2° (Epoch: 16 August)

Event Time Altitude Azimuth Distance (km) Brightness Sun altitude
Rises 08:07:56 0° 280° (W) 4,809 10.2 -22.5°
Reaches altitude 10° 08:11:01 10° 282° (WNW) 3,847 9.7 -22.4°
Maximum altitude 08:20:57 77° 10° (N) 1,696 7.7 -22.3°
Drops below altitude 10° 08:31:08 10° 97° (E) 3,942 9.7 -22.0°
Sets 08:34:20 0° 98° (E) 4,933 10.2 -21.9°
